Hourly Data Report for September 05, 2012

HALIFAX STANFIELD INT'L A
NOVA SCOTIA

44°52'48.060" N
63°30'00.050" W
145.40 m
8202250
71395
YHZ

Download Data

Hourly Data (September 2012)
Hourly Data Report for September 5, 2012
TIME
LST
Temp Definition
°C
Dew Point Definition
°C
Rel Hum Definition
%
Precip. Amount Definition
mm

Wind Dir Definition
10's deg

Wind Spd Definition
km/h
Visibility Definition
km
Stn Press Definition
kPa
Hmdx Definition


Wind Chill Definition


Weather Definition


00:00 16.2 12.9 81   22 9 24.1 100.01     Mostly Cloudy
01:00 16.2 14.2 88   22 13 24.1 99.96     Cloudy
02:00 15.9 13.3 85   22 9 24.1 99.97     Cloudy
03:00 15.4 12.9 85   22 11 24.1 99.95     Cloudy
04:00 15.2 12.2 82   21 13 24.1 99.94     Rain Showers
05:00 13.5 12.1 91   21 9 24.1 99.91     Rain Showers
06:00 13.8 12.1 89   35 9 8.0 100.00     Rain Showers, Fog
07:00 12.8 12.6 99   8 7 8.0 99.90     Rain Showers, Fog
08:00 12.7 12.7 100   12 15 6.4 99.82     Rain Showers, Fog
09:00 12.9 12.9 100   13 20 6.4 99.74     Moderate Rain, Fog
10:00 13.6 13.6 100   14 26 4.0 99.63     Moderate Rain, Fog
11:00 14.1 14.1 100   13 24 4.0 99.51     Rain, Fog
12:00 14.8 14.8 100   14 26 4.0 99.40     Moderate Rain, Fog
13:00 17.0 17.0 100   14 30 2.8 99.22     Heavy Rain, Fog
14:00 18.2 18.2 100   16 17 1.2 99.18     Rain, Fog
15:00 20.0 20.0 100   20 26 2.4 99.03 28   Rain, Fog
16:00 20.1 20.1 100   21 30 2.4 98.94 28   Moderate Rain, Fog
17:00 20.5 20.5 100   20 32 16.1 98.87 28   Rain Showers
18:00 20.1 20.1 100   21 28 16.1 98.85 28   Drizzle
19:00 19.4 19.4 100   21 24 4.8 98.86     Fog
20:00 19.3 19.3 100   21 24 2.4 98.85     Fog
21:00 18.5 18.5 100   19 20 0.8 98.84     Fog
22:00 18.4 18.4 100   20 15 0.8 98.80     Fog
23:00 18.4 18.4 100   21 20 0.8 98.77     Fog

Notes on Data Quality.

Legend

  • E = Estimated
  • M = Missing
  • NA = Not Available*
  • [empty] = Indicates an unobserved value
Date modified: